Satellite: NO-44
Catalog number: 26931
Epoch time:      10202.76450987
Element set:     513
Inclination:      067.0510 deg
RA of node:       114.8892 deg
Eccentricity:    0.0005314
Arg of perigee:   264.7493 deg
Mean anomaly:     095.3009 deg
Mean motion:   14.29604150 rev/day
Decay rate:        8.2e-07 rev/day^2
Epoch rev:           45969
Checksum:              301

Satellite: SO-50
Catalog number: 27607
Epoch time:      10203.34717699
Element set:     225
Inclination:      064.5577 deg
RA of node:       249.7225 deg
Eccentricity:    0.0036320
Arg of perigee:   060.4941 deg
Mean anomaly:     299.9754 deg
Mean motion:   14.71555338 rev/day
Decay rate:      -1.02e-06 rev/day^2
Epoch rev:           40755
Checksum:              313

Satellite: CO-55
Catalog number: 27844
Epoch time:      10203.59021581
Element set:     895
Inclination:      098.7091 deg
RA of node:       212.0556 deg
Eccentricity:    0.0010933
Arg of perigee:   069.8526 deg
Mean anomaly:     290.3824 deg
Mean motion:   14.20718512 rev/day
Decay rate:        1.5e-07 rev/day^2
Epoch rev:           36611
Checksum:              294

Satellite: CO-57
Catalog number: 27848
Epoch time:      10202.99105220
Element set:     844
Inclination:      098.7130 deg
RA of node:       210.5646 deg
Eccentricity:    0.0010814
Arg of perigee:   074.6803 deg
Mean anomaly:     285.5579 deg
Mean motion:   14.20510442 rev/day
Decay rate:        1.8e-07 rev/day^2
Epoch rev:           36598
Checksum:              299

Satellite: AO-51
Catalog number: 28375
Epoch time:      10203.01354987
Element set:     730
Inclination:      098.0636 deg
RA of node:       194.5284 deg
Eccentricity:    0.0084732
Arg of perigee:   352.3248 deg
Mean anomaly:     007.6637 deg
Mean motion:   14.40691384 rev/day
Decay rate:        7.0e-08 rev/day^2
Epoch rev:           31852
Checksum:              307

Satellite: GENESAT1
Catalog number: 29655
Epoch time:      10203.21549890
Element set:     189
Inclination:      040.0131 deg
RA of node:       157.8553 deg
Eccentricity:    0.0010723
Arg of perigee:   228.6365 deg
Mean anomaly:     131.3614 deg
Mean motion:   16.07761132 rev/day
Decay rate:    3.28761e-03 rev/day^2
Epoch rev:           20560
Checksum:              277

Satellite: CP3
Catalog number: 31129
Epoch time:      10203.76754000
Element set:     633
Inclination:      097.9371 deg
RA of node:       241.4311 deg
Eccentricity:    0.0103617
Arg of perigee:   122.7182 deg
Mean anomaly:     238.3961 deg
Mean motion:   14.52280267 rev/day
Decay rate:       1.11e-06 rev/day^2
Epoch rev:           17302
Checksum:              253

Satellite: CO-65
Catalog number: 32785
Epoch time:      10202.26850736
Element set:    0738
Inclination:      097.8940 deg
RA of node:       266.7215 deg
Eccentricity:    0.0015046
Arg of perigee:   169.6834 deg
Mean anomaly:     190.4720 deg
Mean motion:   14.81679630 rev/day
Decay rate:      -1.44e-06 rev/day^2
Epoch rev:           12053
Checksum:              314

Satellite: KKS-1
Catalog number: 33493
Epoch time:      10203.72425857
Element set:     684
Inclination:      098.0893 deg
RA of node:       323.5267 deg
Eccentricity:    0.0020737
Arg of perigee:   029.6514 deg
Mean anomaly:     330.5876 deg
Mean motion:   14.81038758 rev/day
Decay rate:       3.47e-06 rev/day^2
Epoch rev:            8074
Checksum:              318

Satellite: SOHLA-1
Catalog number: 33496
Epoch time:      10203.29597022
Element set:     158
Inclination:      098.0601 deg
RA of node:       311.9206 deg
Eccentricity:    0.0007669
Arg of perigee:   090.4622 deg
Mean anomaly:     269.7468 deg
Mean motion:   14.69504228 rev/day
Decay rate:        9.0e-07 rev/day^2
Epoch rev:            8003
Checksum:              293

Satellite: TISAT-1
Catalog number: 36799
Epoch time:      10202.66634578
Element set:    0031
Inclination:      098.1454 deg
RA of node:       261.9473 deg
Eccentricity:    0.0014274
Arg of perigee:   264.4227 deg
Mean anomaly:     095.5353 deg
Mean motion:   14.80128876 rev/day
Decay rate:       7.05e-06 rev/day^2
Epoch rev:           00141
Checksum:              300

Satellite: STUDSAT
Catalog number: 36801
Epoch time:      10203.68308363
Element set:      35
Inclination:      098.1471 deg
RA of node:       262.9730 deg
Eccentricity:    0.0013690
Arg of perigee:   253.3431 deg
Mean anomaly:     106.6779 deg
Mean motion:   14.79746647 rev/day
Decay rate:       2.28e-06 rev/day^2
Epoch rev:             156
Checksum:              292

/EX
SB KEPS @ AMSAT  $ORB10203.W
Orbital Elements  10203.WEATHER

HR AMSAT ORBITAL ELEMENTS FOR WEATHER SATELLITES
FROM WA5QGD FORT WORTH,TX July 22, 2010
Send Subscribe/unsubscribe to KEPS at http://www.amsat.org/mailman/listinfo/kep
BID: ORB10203.W
TO ALL RADIO AMATEURS BT

Satellite: NOAA-10
Catalog number: 16969
Epoch time:      10203.48154604
Element set:     141
Inclination:      098.6559 deg
RA of node:       232.1151 deg
Eccentricity:    0.0013112
Arg of perigee:   107.2984 deg
Mean anomaly:     252.9636 deg
Mean motion:   14.27421644 rev/day
Decay rate:       -3.6e-07 rev/day^2
Epoch rev:           24061
Checksum:              274

